Regional Weather Roundup
Issued by NWS

Home | Current Version | Previous Version | Text Only | Print | Product List | Glossary Off
Versions: 1 2 3 4 5 6 7 8 9 10 11 12 13 14 15 16 17 18 19 20 21 22 23 24 25 26 27 28 29 30 31 32 33 34 35 36 37 38 39 40 41 42 43 44 45 46 47 48 49 50

662
ASUS45 KSLC 260310
RWRUT

UTAH REGIONAL WEATHER ROUNDUP
NATIONAL WEATHER SERVICE SALT LAKE CITY UT
900 PM MDT SUN SEP 25 2016

UTZ001>011-023>025-260400-

NORTHERN UTAH

CITY           SKY/WX    TMP DP  RH WIND       PRES   REMARKS
BRIGHAM CITY     N/A     56  48  75 SE3       30.44R
HILL AFB       CLEAR     59  42  53 E3        30.44R
LOGAN          CLEAR     54  46  74 CALM      30.44R
OGDEN          CLEAR     59  44  57 CALM      30.43R
PROVO AIRPORT  CLEAR     58  45  62 NW12      30.43R
SALT LAKE CITY CLEAR     60  46  59 N5        30.42R
VERNAL         CLEAR     50  43  77 W5        30.46R
WENDOVER       CLEAR     61  43  51 W3        30.44S
HEBER CITY     CLEAR     48  37  66 CALM      30.44R
WEST JORDAN    CLEAR     56  37  48 W6        30.44R

$$

UTZ012>022-026-027-260400-

SOUTHERN/CENTRAL UTAH

CITY           SKY/WX    TMP DP  RH WIND       PRES   REMARKS
BLANDING       CLEAR     54  29  37 NW7       30.46R
BRYCE CANYON   CLEAR     48  28  46 NE5       30.50R
CEDAR CITY     CLEAR     58  35  42 N8        30.40R
DELTA          CLEAR     57  46  67 N18       30.42R
MILFORD        CLEAR     58  36  43 N9        30.40R
MOAB/CYNLANDS  CLEAR     61  38  42 NW8       30.35R
PRICE          CLEAR     53  42  66 NE8       30.44R
ST GEORGE      CLEAR     75  36  23 NE15      30.23R

$$

REGIONAL REPORTS     COLORADO/ARIZONA

CITY           SKY/WX    TMP DP  RH WIND       PRES   REMARKS
CRAIG, CO      CLEAR     43  36  76 CALM      30.50R
GRAND JUNCTION CLEAR     58  41  53 NE6       30.37R
RIFLE          CLEAR     59  40  49 NW6       30.42R
MONTROSE       CLEAR     52  39  61 SE6       30.45R
CORTEZ         CLEAR     57  34  41 NW5       30.39R
PAGE, AZ       CLEAR     68  30  24 NE5       30.31R
GRAND CANYON   CLEAR     55  31  39 NE9       30.40R
KINGMAN        CLEAR     71  31  22 NE8       30.18R
FLAGSTAFF      CLEAR     52  32  46 NE3       30.38R

$$

REGIONAL REPORTS    NEVADA/IDAHO/WYOMING

CITY           SKY/WX    TMP DP  RH WIND       PRES   REMARKS
LAS VEGAS, NV  CLEAR     83  26  12 N8        30.13R
ELY            CLEAR     55  27  34 N14       30.47R
ELKO           CLEAR     61  37  41 CALM      30.42R
POCATELLO, ID  CLEAR     51  40  65 S8        30.46R
BURLEY         CLEAR     50  43  77 S6        30.43R
EVANSTON, WY   CLEAR     53  34  48 NE7       30.54R
ROCK SPRINGS   CLEAR     48  34  58 S10       30.48R

$$




USA.gov is the U.S. government's official web portal to all federal, state and local government web resources and services.